Location: Auckland
(36.8670°S, 174.7670°E)
Time: 04:29:05
(UTC+12:00)

NOSS 2-1 (E) - Visible Passes

Search period start: 24 April 2019 00:00
Search period end: 04 May 2019 00:00
Orbit: 478 x 1727 km, 63.3° (Epoch: 24 March)

Date Brightness Start Highest point End Pass type
(mag) Time Alt. Az. Time Alt. Az. Time Alt. Az.
24 Apr 7.3 18:30:52 10° WSW 18:37:42 19° SSW 18:44:02 10° SSE visible
24 Apr 7.3 20:32:01 10° S 20:33:11 10° S 20:34:20 10° S visible
24 Apr 7.5 22:23:27 10° SSW 22:23:46 11° S 22:23:46 11° S visible
25 Apr 7.4 19:43:09 10° SSW 19:45:47 11° S 19:48:17 10° S visible
25 Apr 7.3 21:37:42 10° S 21:39:05 12° S 21:39:05 12° S visible
26 Apr 7.3 18:54:02 10° SW 18:58:25 13° SSW 19:02:33 10° S visible
26 Apr 7.2 20:51:54 10° S 20:54:10 11° S 20:54:26 11° SSE visible
27 Apr 7.3 18:05:06 10° WSW 18:11:11 17° SSW 18:16:51 10° S visible
27 Apr 7.2 20:05:43 10° S 20:06:49 10° S 20:07:53 10° S visible
27 Apr 7.4 21:56:17 10° SSW 21:57:07 12° S 21:57:07 12° S visible
28 Apr 7.3 19:17:35 10° SSW 19:19:24 11° S 19:21:11 10° S visible
28 Apr 7.2 21:10:31 10° S 21:12:28 13° S 21:12:28 13° S visible
29 Apr 7.3 18:28:29 10° SW 18:32:01 12° SSW 18:35:22 10° S visible
29 Apr 7.1 20:24:45 10° S 20:27:44 12° SSE 20:27:51 12° SSE visible
29 Apr 7.5 22:14:57 10° SSW 22:15:11 11° SSW 22:15:11 11° SSW visible
30 Apr 7.1 19:38:51 10° S 19:40:26 10° S 19:41:56 10° SSE visible
30 Apr 7.2 21:29:07 10° SSW 21:30:34 14° S 21:30:34 14° S visible
01 May 7.2 18:51:48 10° S 18:53:02 10° S 18:54:15 10° S visible
01 May 7.0 20:43:20 10° SSW 20:45:58 15° S 20:45:58 15° S visible
02 May 7.3 18:02:56 10° SSW 18:05:37 11° S 18:08:12 10° S visible
02 May 6.9 19:57:35 10° S 20:01:15 13° SSE 20:01:23 13° SSE visible
02 May 7.3 21:47:50 10° SSW 21:48:44 13° SSW 21:48:44 13° SSW visible
03 May 6.9 19:11:47 10° S 19:14:01 11° S 19:16:07 10° SSE visible
03 May 6.9 21:01:58 10° SSW 21:04:11 17° S 21:04:11 17° S visible
